Weather History for Newport News, VA

Change the Weather History Date:

Saturday, September 21, 2013

  Actual Average Record
Temperature  
Mean Temperature 72 °F -  
Max Temperature 86 °F 82 °F 92 °F (1980)
Min Temperature 57 °F 65 °F 48 °F (2006)
Cooling Degree Days 6    
Growing Degree Days 22 (Base 50)    
Moisture  
Dew Point 62 °F    
Average Humidity 75    
Maximum Humidity 94    
Minimum Humidity 45    
Precipitation  
Precipitation 0.46 in - - ()
Sea Level Pressure  
Sea Level Pressure 29.86 in    
Wind  
Wind Speed 5 mph (SSW)    
Max Wind Speed 17 mph    
Max Gust Speed 22 mph    
Visibility 8 miles    
Events Rain    
Averages and records for this station are not official NWS values.
T = Trace of Precipitation, MM = Missing Value Source: NWS Daily Summary

Daily Weather History Graph

Daily Weather History Graph

Search for Another Location

Airport:

Trip Planner

Search our weather history database for the weather conditions in past years. The results will help you decide how hot, cold, wet, or windy it might be!

Date:

Astronomy

Sep. 21, 2013 Rise Set
Actual Time 6:53 AM EDT 7:04 PM EDT
Civil Twilight 6:27 AM EDT 7:30 PM EDT
Nautical Twilight 5:56 AM EDT 8:00 PM EDT
Astronomical Twilight 5:25 AM EDT 8:31 PM EDT
Moon 8:18 PM EDT (9/21) 9:05 AM EDT (9/21)
Length of Visible Light 13h 02m
Length of Day
12h 10m
Waning Gibbous, 94% of the Moon is Illuminated
Sep 21
Waning Gibbous
Sep 26
Last Quarter
Oct 4
New
Oct 11
First Quarter
Oct 18
Full

Hourly Weather History & Observations

Time (EDT) Temp. Heat Index Dew Point Humidity Pressure Visibility Wind Dir Wind Speed Gust Speed Precip Events Conditions
12:54 AM 61.0 °F - 55.9 °F 83% 30.00 in 10.0 mi Calm Calm - N/A   Clear
1:54 AM 60.1 °F - 55.0 °F 83% 29.98 in 10.0 mi Calm Calm - N/A   Clear
2:54 AM 59.0 °F - 54.0 °F 83% 29.97 in 10.0 mi Calm Calm - N/A   Clear
3:54 AM 57.0 °F - 54.0 °F 89% 29.97 in 10.0 mi Calm Calm - N/A   Clear
4:54 AM 57.9 °F - 54.0 °F 87% 29.96 in 10.0 mi Calm Calm - N/A   Clear
5:54 AM 57.9 °F - 55.0 °F 90% 29.95 in 1.8 mi Calm Calm - N/A   Clear
6:06 AM 57.2 °F - 53.6 °F 88% 29.95 in 3.0 mi Calm Calm - N/A   Clear
6:31 AM 57.2 °F - 55.4 °F 94% 29.95 in 8.0 mi Calm Calm - N/A   Partly Cloudy
6:54 AM 57.0 °F - 53.1 °F 87% 29.94 in 7.0 mi Calm Calm - N/A   Partly Cloudy
7:54 AM 61.0 °F - 57.0 °F 87% 29.93 in 8.0 mi Calm Calm - N/A   Partly Cloudy
8:54 AM 73.0 °F - 63.0 °F 71% 29.93 in 10.0 mi SSE 6.9 mph - N/A   Clear
9:54 AM 77.0 °F - 61.0 °F 58% 29.92 in 10.0 mi South 5.8 mph - N/A   Clear
10:54 AM 81.0 °F 81.1 °F 57.9 °F 45% 29.90 in 10.0 mi SSE 6.9 mph 16.1 mph N/A   Clear
11:54 AM 82.9 °F 83.7 °F 62.1 °F 49% 29.88 in 10.0 mi South 16.1 mph 20.7 mph N/A   Clear
12:54 PM 84.0 °F 84.5 °F 62.1 °F 47% 29.85 in 10.0 mi South 12.7 mph 21.9 mph N/A   Mostly Cloudy
1:54 PM 86.0 °F 87.3 °F 64.0 °F 48% 29.82 in 10.0 mi SSW 17.3 mph - N/A   Clear
2:54 PM 82.9 °F 84.4 °F 64.0 °F 53% 29.80 in 10.0 mi SW 15.0 mph - N/A   Scattered Clouds
3:54 PM 80.1 °F 81.7 °F 64.0 °F 58% 29.79 in 10.0 mi SSW 13.8 mph - N/A   Overcast
4:54 PM 79.0 °F - 64.9 °F 62% 29.77 in 10.0 mi SSW 12.7 mph - N/A   Overcast
6:54 PM 77.0 °F - 66.0 °F 69% 29.75 in 10.0 mi South 9.2 mph - N/A   Mostly Cloudy
7:54 PM 77.0 °F - 66.9 °F 71% 29.75 in 10.0 mi South 5.8 mph - N/A   Scattered Clouds
8:54 PM 75.9 °F - 68.0 °F 76% 29.75 in 10.0 mi SSW 6.9 mph - 0.00 in Rain Light Rain
9:54 PM 73.9 °F - 69.1 °F 85% 29.76 in 10.0 mi SSW 9.2 mph - 0.02 in Rain Light Rain
10:40 PM 73.4 °F - 68.0 °F 83% 29.76 in 6.0 mi SW 8.1 mph - 0.04 in Rain Light Rain
10:52 PM 73.4 °F - 68.0 °F 83% 29.77 in 4.0 mi WSW 15.0 mph 19.6 mph 0.09 in Rain Light Rain
10:54 PM 73.0 °F - 66.9 °F 81% 29.77 in 3.0 mi West 13.8 mph 19.6 mph 0.11 in Rain Light Rain
10:59 PM 71.6 °F - 66.2 °F 83% 29.78 in 2.5 mi West 11.5 mph - 0.06 in Rain Heavy Rain
11:07 PM 71.6 °F - 66.2 °F 83% 29.77 in 1.2 mi West 10.4 mph - 0.24 in Rain Heavy Rain
11:14 PM 71.6 °F - 66.2 °F 83% 29.77 in 3.0 mi SW 9.2 mph - 0.26 in Rain Light Rain
11:54 PM 71.1 °F - 66.9 °F 87% 29.76 in 6.0 mi SW 6.9 mph - 0.33 in Rain Light Rain